Location: L�beck
(53.8752°N, 10.6787°E)
Time: 18:32:14
(UTC+01:00)

ISS - Pass Details

Date: 07 January 2018
Orbit: 402 x 407 km, 51.6° (Epoch: 19 January)

Event Time Altitude Azimuth Distance (km) Brightness Sun altitude
Exits shadow 05:56:20 52° 140° (SE) 517 -3.1 -21.8°
Drops below altitude 10° 05:59:07 10° 100° (E) 1,470 0.2 -21.4°
Sets 06:01:13 0° 97° (E) 2,332 1.6 -21.1°
